• In Deutschland
  • Länderverzeichnis
  • Für 7 Tage
  • Wassertemperatur
  • Satellitenkarten
  • Wetterkarte
  • Widgets
  • user-avatar
    Anmelden

    Stündliche Wetter Bad Soden am Taunus

    Heute, 26 April, Donnerstag

    Zeit Temperatur Niederschläge Wind Luftdruck Luftfeuchtigkeit
    00:00 +9°C° 0 mm 3 m/S 746 mmHg 77%
    01:00 +8°C° 0 mm 3 m/S 746 mmHg 76%
    02:00 +8°C° 0 mm 3 m/S 746 mmHg 77%
    03:00 +7°C° 0 mm 3 m/S 746 mmHg 78%
    04:00 +7°C° 0 mm 3 m/S 746 mmHg 78%
    05:00 +6°C° 0 mm 4 m/S 747 mmHg 78%
    06:00 +7°C° 0 mm 4 m/S 747 mmHg 77%
    07:00 +7°C° 0 mm 5 m/S 747 mmHg 76%
    08:00 +8°C° 0,1 mm 5 m/S 748 mmHg 71%
    09:00 +9°C° 0,1 mm 5 m/S 748 mmHg 65%
    10:00 +10°C° 0,1 mm 6 m/S 748 mmHg 60%
    11:00 +11°C° 0,1 mm 6 m/S 748 mmHg 56%
    12:00 +13°C° 0,1 mm 6 m/S 748 mmHg 52%
    13:00 +13°C° 0,1 mm 6 m/S 748 mmHg 48%
    14:00 +14°C° 0,1 mm 5 m/S 748 mmHg 47%
    15:00 +14°C° 0,1 mm 5 m/S 747 mmHg 45%
    16:00 +14°C° 0,1 mm 5 m/S 747 mmHg 44%
    17:00 +14°C° 0,1 mm 4 m/S 747 mmHg 50%
    18:00 +13°C° 0,1 mm 3 m/S 747 mmHg 56%
    19:00 +12°C° 0,1 mm 3 m/S 748 mmHg 62%
    20:00 +10°C° 0 mm 2 m/S 748 mmHg 66%
    21:00 +9°C° 0 mm 2 m/S 748 mmHg 70%
    22:00 +9°C° 0 mm 1 m/S 748 mmHg 74%
    23:00 +9°C° 0 mm 1 m/S 748 mmHg 75%

    Morgen, 27 April, Freitag

    Zeit Temperatur Niederschläge Wind Luftdruck Luftfeuchtigkeit
    00:00 +8°C° 0 mm 1 m/S 748 mmHg 77%
    01:00 +8°C° 0 mm 1 m/S 748 mmHg 79%
    02:00 +7°C° 0 mm 0 m/S 747 mmHg 80%
    03:00 +7°C° 0 mm 0 m/S 747 mmHg 81%
    04:00 +6°C° 0 mm 0 m/S 747 mmHg 81%
    05:00 +8°C° 0 mm 1 m/S 746 mmHg 79%
    06:00 +9°C° 0 mm 1 m/S 746 mmHg 76%
    07:00 +10°C° 0 mm 1 m/S 746 mmHg 73%
    08:00 +10°C° 0 mm 2 m/S 745 mmHg 66%
    09:00 +13°C° 0 mm 2 m/S 745 mmHg 59%
    10:00 +14°C° 0 mm 3 m/S 744 mmHg 52%
    11:00 +16°C° 0 mm 3 m/S 743 mmHg 49%
    12:00 +18°C° 0 mm 3 m/S 743 mmHg 46%
    13:00 +19°C° 0 mm 3 m/S 742 mmHg 43%
    14:00 +19°C° 0 mm 4 m/S 741 mmHg 43%
    15:00 +20°C° 0 mm 4 m/S 741 mmHg 42%
    16:00 +21°C° 0 mm 4 m/S 740 mmHg 41%
    17:00 +19°C° 0 mm 4 m/S 740 mmHg 47%
    18:00 +18°C° 0 mm 3 m/S 740 mmHg 52%
    19:00 +17°C° 0 mm 3 m/S 740 mmHg 57%
    20:00 +16°C° 0 mm 3 m/S 741 mmHg 62%
    21:00 +14°C° 0 mm 3 m/S 742 mmHg 66%
    22:00 +13°C° 0 mm 4 m/S 742 mmHg 71%
    23:00 +12°C° 0 mm 4 m/S 742 mmHg 74%

    übermorgen, 28 April, Samstag

    Zeit Temperatur Niederschläge Wind Luftdruck Luftfeuchtigkeit
    00:00 +11°C° 0 mm 4 m/S 743 mmHg 76%
    01:00 +10°C° 0 mm 4 m/S 743 mmHg 79%
    02:00 +10°C° 0 mm 4 m/S 743 mmHg 79%
    03:00 +8°C° 0 mm 4 m/S 743 mmHg 80%
    04:00 +7°C° 0 mm 4 m/S 744 mmHg 80%
    05:00 +7°C° 0 mm 4 m/S 744 mmHg 79%
    06:00 +8°C° 0 mm 4 m/S 745 mmHg 77%
    07:00 +8°C° 0 mm 4 m/S 745 mmHg 76%
    08:00 +10°C° 0 mm 4 m/S 745 mmHg 72%
    09:00 +11°C° 0 mm 3 m/S 746 mmHg 69%
    10:00 +12°C° 0 mm 3 m/S 746 mmHg 65%
    11:00 +12°C° 0 mm 3 m/S 746 mmHg 63%
    12:00 +14°C° 0 mm 2 m/S 746 mmHg 61%
    13:00 +14°C° 0 mm 2 m/S 746 mmHg 58%
    14:00 +15°C° 0 mm 2 m/S 746 mmHg 56%
    15:00 +15°C° 0 mm 1 m/S 746 mmHg 54%
    16:00 +16°C° 0 mm 1 m/S 745 mmHg 52%
    17:00 +15°C° 0 mm 1 m/S 745 mmHg 56%
    18:00 +14°C° 0 mm 1 m/S 745 mmHg 60%
    19:00 +13°C° 0 mm 1 m/S 745 mmHg 64%
    20:00 +12°C° 0 mm 1 m/S 746 mmHg 68%
    21:00 +10°C° 0 mm 2 m/S 746 mmHg 72%
    22:00 +9°C° 0 mm 2 m/S 746 mmHg 76%
    23:00 +8°C° 0 mm 2 m/S 746 mmHg 78%

    29 April, Sonntag

    Zeit Temperatur Niederschläge Wind Luftdruck Luftfeuchtigkeit
    00:00 +8°C° 0 mm 2 m/S 745 mmHg 80%
    01:00 +8°C° 0 mm 2 m/S 745 mmHg 82%
    02:00 +8°C° 0 mm 2 m/S 745 mmHg 82%
    03:00 +8°C° 0 mm 2 m/S 744 mmHg 83%
    04:00 +7°C° 0 mm 3 m/S 744 mmHg 84%
    05:00 +8°C° 0 mm 3 m/S 743 mmHg 81%
    06:00 +9°C° 0 mm 3 m/S 743 mmHg 79%
    07:00 +10°C° 0 mm 3 m/S 743 mmHg 76%
    08:00 +12°C° 0 mm 3 m/S 743 mmHg 72%
    09:00 +14°C° 0 mm 3 m/S 742 mmHg 68%
    10:00 +16°C° 0 mm 3 m/S 742 mmHg 64%
    11:00 +18°C° 0 mm 3 m/S 741 mmHg 62%
    12:00 +20°C° 0 mm 3 m/S 741 mmHg 60%
    13:00 +21°C° 0 mm 3 m/S 740 mmHg 58%
    14:00 +22°C° 0 mm 3 m/S 740 mmHg 57%
    15:00 +24°C° 0 mm 3 m/S 739 mmHg 57%
    16:00 +25°C° 0 mm 3 m/S 738 mmHg 57%
    17:00 +22°C° 0,3 mm 3 m/S 738 mmHg 63%
    18:00 +21°C° 0,3 mm 3 m/S 738 mmHg 69%
    19:00 +20°C° 0,3 mm 2 m/S 738 mmHg 75%
    20:00 +19°C° 0,4 mm 3 m/S 737 mmHg 79%
    21:00 +18°C° 0,4 mm 3 m/S 737 mmHg 82%
    22:00 +17°C° 0,4 mm 3 m/S 737 mmHg 85%
    23:00 +17°C° 0,2 mm 3 m/S 737 mmHg 87%

    30 April, Montag

    Zeit Temperatur Niederschläge Wind Luftdruck Luftfeuchtigkeit
    00:00 +17°C° 0,2 mm 3 m/S 736 mmHg 88%
    01:00 +16°C° 0,2 mm 3 m/S 736 mmHg 89%
    02:00 +16°C° 0,2 mm 3 m/S 735 mmHg 90%
    03:00 +16°C° 0,2 mm 2 m/S 735 mmHg 90%
    04:00 +15°C° 0,2 mm 2 m/S 734 mmHg 91%
    05:00 +14°C° 0,5 mm 3 m/S 735 mmHg 91%
    06:00 +14°C° 0,5 mm 3 m/S 735 mmHg 90%
    07:00 +15°C° 0,5 mm 4 m/S 735 mmHg 90%
    08:00 +14°C° 0,1 mm 5 m/S 736 mmHg 87%
    09:00 +13°C° 0,1 mm 5 m/S 737 mmHg 84%
    10:00 +11°C° 0,1 mm 6 m/S 738 mmHg 80%
    11:00 +11°C° 0,1 mm 6 m/S 739 mmHg 80%
    12:00 +10°C° 0,1 mm 6 m/S 740 mmHg 79%
    13:00 +10°C° 0,1 mm 5 m/S 740 mmHg 78%
    14:00 +10°C° 0,1 mm 5 m/S 741 mmHg 76%
    15:00 +10°C° 0,1 mm 5 m/S 741 mmHg 74%
    16:00 +12°C° 0,1 mm 4 m/S 741 mmHg 72%
    17:00 +12°C° 0 mm 3 m/S 741 mmHg 71%
    18:00 +12°C° 0 mm 3 m/S 742 mmHg 71%
    19:00 +13°C° 0 mm 2 m/S 742 mmHg 70%
    20:00 +12°C° 0 mm 2 m/S 742 mmHg 73%
    21:00 +10°C° 0 mm 2 m/S 743 mmHg 75%
    22:00 +9°C° 0 mm 2 m/S 743 mmHg 78%
    23:00 +10°C° 0 mm 1 m/S 743 mmHg 80%

    1 Mai, Dienstag

    Zeit Temperatur Niederschläge Wind Luftdruck Luftfeuchtigkeit
    00:00 +9°C° 0 mm 1 m/S 743 mmHg 82%
    01:00 +9°C° 0 mm 1 m/S 744 mmHg 83%
    02:00 +9°C° 0 mm 1 m/S 744 mmHg 84%
    03:00 +8°C° 0 mm 1 m/S 744 mmHg 85%
    04:00 +8°C° 0 mm 1 m/S 744 mmHg 85%
    05:00 +9°C° 0 mm 1 m/S 744 mmHg 82%
    06:00 +10°C° 0 mm 1 m/S 744 mmHg 78%
    07:00 +11°C° 0 mm 1 m/S 744 mmHg 74%
    08:00 +13°C° 0 mm 1 m/S 744 mmHg 66%
    09:00 +15°C° 0 mm 1 m/S 744 mmHg 58%
    10:00 +18°C° 0 mm 1 m/S 744 mmHg 50%
    11:00 +19°C° 0 mm 1 m/S 744 mmHg 47%
    12:00 +19°C° 0 mm 2 m/S 744 mmHg 44%
    13:00 +20°C° 0 mm 2 m/S 743 mmHg 41%
    14:00 +20°C° 0 mm 2 m/S 743 mmHg 41%
    15:00 +20°C° 0 mm 2 m/S 743 mmHg 41%
    16:00 +20°C° 0 mm 2 m/S 743 mmHg 41%
    17:00 +19°C° 0 mm 2 m/S 743 mmHg 47%
    18:00 +18°C° 0 mm 2 m/S 743 mmHg 53%
    19:00 +17°C° 0 mm 2 m/S 743 mmHg 59%
    20:00 +16°C° 0 mm 2 m/S 743 mmHg 61%
    21:00 +14°C° 0 mm 2 m/S 743 mmHg 64%
    22:00 +13°C° 0 mm 2 m/S 743 mmHg 67%
    23:00 +13°C° 0 mm 2 m/S 743 mmHg 69%
    Mehr zeigen